Regional Weather Roundup
Issued by NWS

Home | Current Version | Previous Version | Graphics & Text | Print | Product List | Glossary Off
Versions: 1 2 3 4 5 6 7 8 9 10 11 12 13 14 15 16 17 18 19 20 21 22 23 24 25 26 27 28 29 30 31 32 33 34 35 36 37 38 39 40 41 42 43 44 45 46 47 48 49 50

000
ASUS45 KABQ 201310
RWRNM
WEATHER ROUNDUP FOR NEW MEXICO
NATIONAL WEATHER SERVICE ALBUQUERQUE NM
600 AM MST SAT DEC 20 2014

NOTE: "FAIR" MEANS FEW OR NO CLOUDS BELOW 12,000 FEET AGL WITH NO
       SIGNIFICANT WEATHER OR OBSTRUCTIONS TO VISION.

      THIS PRODUCT IS RELEASED AS TWO VERSIONS.  ONE VERSION NEAR
      THE TOP OF THE HOUR CONTAINING PRELIMINARY DATA FROM ALBUQUERQUE
      AND OTHER STATIONS.  A FINAL VERSION WITH ADDITIONAL DATA IS
      ISSUED ABOUT 10 MINUTES AFTER THE HOUR.

NMZ501-503-504-510>518-201400-
NORTHWEST PLATEAU/NORTHCENTRAL MOUNTAINS

CITY           SKY/WX    TMP DP  RH WIND       PRES   REMARKS
FARMINGTON     CLOUDY    26  23  88 CALM      30.18S
LOS ALAMOS     PTCLDY    23  17  80 N5        30.12F WCI  17
SANTA FE       PTCLDY    24  16  71 N14       30.10S WCI  12
TAOS           PTCLDY    10   7  85 N5        30.17S WCI   2
ANGEL FIRE     FAIR       0  -3  86 CALM      30.15S

$$
NMZ402-403-502-505>509-201400-
WESTCENTRAL MOUNTAINS/SOUTHWEST MOUNTAINS

CITY           SKY/WX    TMP DP  RH WIND       PRES   REMARKS
GALLUP         FOG       25  22  88 SE3       30.18S VSB 1/2
GRANTS         MOCLDY    18  16  93 NW6       30.18S WCI  10
SILVER CITY    CLEAR     27  25  93 N6        30.14F WCI  20

$$
NMZ407-409-411-412-201400-
SOUTHERN DESERTS

CITY           SKY/WX    TMP DP  RH WIND       PRES   REMARKS
LORDSBURG      FAIR      28  28 100 CALM      30.15R
DEMING         CLEAR     25  23  92 CALM      30.14F
LAS CRUCES     CLEAR     29  26  87 CALM      30.16S
HOLLOMAN AFB   CLEAR     26  23  89 N8        30.14S WCI  17
ALAMOGORDO     CLEAR     25  23  93 CALM      30.16R
T OR C         CLEAR     28  21  75 NW5       30.15S WCI  23

$$
NMZ519>523-201400-
CENTRAL VALLEYS/CENTRAL HIGHLANDS

CITY           SKY/WX    TMP DP  RH WIND       PRES   REMARKS
ALBUQUERQUE    PTCLDY    30  23  75 CALM      30.16F
DOUBLE EAGLE   CLEAR     28  21  74 N5        30.15F WCI  23
MORIARTY ARPT  FAIR      23  19  86 W6        30.11F WCI  15
CLINES CORNERS CLEAR     24  17  74 NW23      30.03F WCI   9
BELEN          FAIR      21  19  92 NW6       30.16F WCI  13
SOCORRO        FAIR      24  21  90 W5        30.17S WCI  18

$$
NMZ524>526-539-540-201400-
SOUTHCENTRAL MOUNTAINS

CITY           SKY/WX    TMP DP  RH WIND       PRES   REMARKS
RUIDOSO        CLEAR     30  19  64 NW8       30.12R WCI  23

$$
NMZ527>531-201400-
NORTHEAST HIGHLANDS/NORTHEAST PLAINS

CITY           SKY/WX    TMP DP  RH WIND       PRES   REMARKS
LAS VEGAS      PTCLDY    21   9  59 N12       30.05R WCI   9
RATON          PTCLDY    17  13  84 NE8       30.05S WCI   7
CLAYTON        CLEAR     31  24  75 W10       30.04S WCI  22

$$
NMZ532>537-201400-
EASTCENTRAL PLAINS

CITY           SKY/WX    TMP DP  RH WIND       PRES   REMARKS
TUCUMCARI      FOG       26  25  96 NW6       30.07R VSB 1/4 WCI  19
CANNON AFB     MOCLDY    22  21  95 S2        30.08S
CLOVIS AIRPORT CLOUDY    21  21 100 CALM      30.08S VSB 1

$$
NMZ028-029-538-201400-
SOUTHEAST PLAINS

CITY           SKY/WX    TMP DP  RH WIND       PRES   REMARKS
ROSWELL        CLOUDY    26  19  74 CALM      30.11S
ARTESIA        MOCLDY    27  23  86 W7        30.13S WCI  19
CARLSBAD       PTCLDY    29  24  82 NW7       30.12R WCI  22
HOBBS          FOG       36  36 100 E7        30.13R VSB 1/4 WCI  30


$$


USA.gov is the U.S. government's official web portal to all federal, state and local government web resources and services.